GW2742 Weather Reports


time (UTC)temp
C
wind
direction
speed
KPH
gust
KPH
rain 1hr
cm
rain 24hr
cm
rain mn
cm
humidity
%
barometer
mb
20260510110040 3 342 1.6 4.8 0.00 0.03 0.00 87 1021.8
20260510105526 3 0 0.0 0.0 0.00 0.13 0.00 87 1021.8
20260510105024 3 0 0.0 0.0 0.00 0.13 0.00 87 1021.7
20260510104537 3 0 0.0 1.6 0.00 0.13 0.00 87 1021.8
20260510104027 3 0 0.0 3.2 0.00 0.13 0.00 87 1021.7
20260510103523 3 0 0.0 3.2 0.00 0.13 0.00 86 1021.7
20260510103043 3 213 1.6 3.2 0.00 0.13 0.00 86 1021.7
20260510102530 4 271 0.0 3.2 0.00 0.13 0.00 86 1021.7
20260510102028 4 271 0.0 4.8 0.00 0.13 0.00 86 1021.7
20260510101537 4 0 1.6 4.8 0.00 0.13 0.00 86 1021.7
20260510101023 4 285 1.6 3.2 0.00 0.13 0.00 86 1021.7
20260510100526 4 285 0.0 3.2 0.00 0.13 0.00 86 1021.7
20260510100047 4 338 0.0 1.6 0.00 0.13 0.00 86 1021.8
20260510095523 4 0 0.0 0.0 0.00 0.13 0.00 86 1021.7
20260510095024 5 0 0.0 0.0 0.00 0.13 0.00 86 1021.7
20260510094544 5 0 0.0 0.0 0.00 0.13 0.00 86 1021.7
20260510094024 5 0 0.0 0.0 0.00 0.13 0.00 86 1021.6
20260510093524 5 0 0.0 0.0 0.00 0.13 0.00 85 1021.6
20260510093036 5 0 0.0 0.0 0.00 0.13 0.00 84 1021.5
20260510092525 5 0 0.0 0.0 0.00 0.13 0.00 84 1021.6
20260510092026 5 0 0.0 0.0 0.00 0.13 0.00 84 1021.6
20260510091536 5 0 0.0 0.0 0.00 0.13 0.00 83 1021.4
20260510091025 5 0 0.0 0.0 0.00 0.13 0.00 82 1021.5
20260510090523 5 0 0.0 3.2 0.00 0.13 0.00 82 1021.5
20260510090040 5 0 0.0 4.8 0.00 0.13 0.00 81 1021.5
20260510085527 5 338 1.6 4.8 0.00 0.13 0.00 81 1021.6
20260510085026 6 338 1.6 4.8 0.00 0.13 0.00 79 1021.5
20260510084552 6 198 0.0 4.8 0.00 0.13 0.00 79 1021.5
20260510084023 6 0 0.0 4.8 0.00 0.13 0.00 80 1021.5
20260510083527 6 198 1.6 6.4 0.00 0.13 0.00 80 1021.5
20260510083041 6 212 1.6 6.4 0.00 0.13 0.00 80 1021.5
20260510082524 6 212 1.6 8.0 0.00 0.13 0.00 80 1021.5
20260510082024 6 209 3.2 8.0 0.00 0.13 0.00 80 1021.4
20260510081537 6 204 3.2 8.0 0.00 0.13 0.00 79 1021.5
20260510081024 7 203 3.2 8.0 0.00 0.13 0.00 79 1021.4
20260510080530 7 191 3.2 6.4 0.00 0.13 0.00 78 1021.3
20260510080036 7 191 3.2 6.4 0.00 0.13 0.00 79 1021.4
20260510075527 7 188 0.0 4.8 0.00 0.13 0.00 79 1021.3
20260510075023 7 0 0.0 4.8 0.00 0.13 0.00 79 1021.3
20260510074537 7 188 3.2 4.8 0.00 0.13 0.00 79 1021.3
20260510074025 7 188 1.6 4.8 0.00 0.13 0.00 79 1021.4
20260510073523 7 179 1.6 6.4 0.00 0.13 0.00 79 1021.4
20260510073047 7 179 3.2 6.4 0.00 0.13 0.00 79 1021.3
20260510072523 7 162 1.6 4.8 0.00 0.13 0.00 80 1021.4
20260510072026 7 0 0.0 1.6 0.00 0.13 0.00 80 1021.3
20260510071548 7 0 0.0 4.8 0.00 0.13 0.00 80 1021.2
20260510071023 7 0 0.0 4.8 0.00 0.13 0.00 79 1021.3
20260510070523 7 240 1.6 4.8 0.00 0.13 0.00 78 1021.3
20260510070041 7 241 0.0 3.2 0.00 0.13 0.00 78 1021.2
20260510065524 7 0 0.0 0.0 0.00 0.13 0.00 78 1021.3
20260510065026 8 0 0.0 0.0 0.00 0.13 0.00 77 1021.1
20260510064545 8 0 0.0 1.6 0.00 0.13 0.00 77 1021.1
20260510064025 8 0 0.0 4.8 0.00 0.13 0.00 77 1021.0
20260510063528 8 241 0.0 4.8 0.00 0.13 0.00 77 1021.0
20260510063038 8 241 1.6 4.8 0.00 0.13 0.00 76 1020.9
20260510062525 8 241 1.6 4.8 0.00 0.13 0.00 75 1020.9
20260510062028 8 241 0.0 4.8 0.00 0.13 0.00 75 1020.9
20260510061538 8 236 0.0 4.8 0.00 0.13 0.00 74 1020.9
20260510061024 8 0 0.0 6.4 0.00 0.13 0.00 74 1020.8
20260510060525 9 239 1.6 6.4 0.00 0.13 0.00 75 1020.9
20260510060046 8 215 1.6 6.4 0.00 0.13 0.00 74 1020.9
20260510055524 9 231 1.6 3.2 0.00 0.13 0.13 74 1020.7
20260510055024 9 230 0.0 3.2 0.00 0.13 0.13 73 1020.8
20260510054537 9 230 0.0 4.8 0.00 0.13 0.13 72 1020.8
20260510054025 10 230 0.0 4.8 0.00 0.13 0.13 71 1020.8
20260510053525 10 230 0.0 4.8 0.00 0.13 0.13 71 1020.8
20260510053041 10 230 1.6 9.7 0.00 0.13 0.13 70 1020.8
20260510052524 10 233 3.2 9.7 0.00 0.13 0.13 70 1020.8
20260510052024 10 246 1.6 4.8 0.00 0.13 0.13 69 1020.8
20260510051542 10 238 1.6 4.8 0.00 0.13 0.13 70 1020.7
20260510051024 10 224 1.6 6.4 0.00 0.13 0.13 69 1020.7
20260510050524 10 202 1.6 6.4 0.00 0.13 0.13 70 1020.6
20260510050040 10 229 1.6 4.8 0.00 0.13 0.13 69 1020.7
20260510045524 11 219 1.6 4.8 0.00 0.13 0.13 69 1020.7
20260510045026 11 219 1.6 4.8 0.00 0.13 0.13 68 1020.6
20260510044540 11 257 0.0 4.8 0.00 0.13 0.13 68 1020.6
20260510044026 11 257 1.6 4.8 0.00 0.13 0.13 68 1020.6
20260510043526 11 80 0.0 3.2 0.00 0.13 0.13 68 1020.6
20260510043044 11 0 0.0 3.2 0.00 0.13 0.13 67 1020.6
20260510042524 11 79 0.0 3.2 0.00 0.13 0.13 66 1020.6
20260510042026 11 93 1.6 4.8 0.00 0.13 0.13 66 1020.6
20260510041549 11 93 0.0 4.8 0.00 0.13 0.13 65 1020.5
20260510041025 11 105 1.6 4.8 0.00 0.13 0.13 65 1020.4
20260510040527 11 0 0.0 3.2 0.00 0.13 0.13 66 1020.4
20260510040036 11 0 0.0 3.2 0.00 0.13 0.13 66 1020.5
20260510035528 11 106 1.6 6.4 0.00 0.13 0.13 67 1020.4
20260510035026 11 106 1.6 6.4 0.00 0.13 0.13 67 1020.4
20260510034540 11 106 0.0 4.8 0.00 0.13 0.13 67 1020.2
20260510034027 11 0 0.0 4.8 0.00 0.13 0.13 64 1020.3
20260510033524 12 0 0.0 9.7 0.00 0.13 0.13 64 1020.1
20260510033037 12 44 3.2 9.7 0.00 0.13 0.13 63 1020.0
20260510032523 12 40 4.8 12.9 0.00 0.13 0.13 62 1019.9
20260510032023 12 29 4.8 12.9 0.00 0.13 0.13 62 1019.8
20260510031537 12 41 6.4 12.9 0.00 0.13 0.13 62 1019.8
20260510031024 12 25 3.2 14.5 0.00 0.13 0.13 62 1019.8
20260510030527 12 78 3.2 14.5 0.00 0.13 0.13 61 1019.7
20260510030037 12 30 3.2 11.3 0.00 0.13 0.13 62 1019.7
20260510025523 12 66 4.8 11.3 0.00 0.15 0.13 62 1019.5
20260510025026 12 63 4.8 12.9 0.00 0.15 0.13 62 1019.4
20260510024547 12 30 4.8 12.9 0.00 0.15 0.13 62 1019.4
20260510024026 13 49 6.4 14.5 0.00 0.15 0.13 61 1019.3
20260510023523 13 35 8.0 14.5 0.00 0.15 0.13 61 1019.2
20260510023037 13 54 6.4 14.5 0.00 0.15 0.13 61 1019.2
20260510022526 13 72 6.4 14.5 0.00 0.15 0.13 61 1019.0
20260510022023 13 35 6.4 20.9 0.00 0.15 0.13 61 1018.9
20260510021537 13 31 8.0 20.9 0.00 0.15 0.13 60 1019.0
20260510021022 13 27 9.7 19.3 0.00 0.15 0.13 59 1018.9
20260510020522 14 33 9.7 19.3 0.00 0.15 0.13 58 1018.8
20260510020049 15 37 8.0 16.1 0.00 0.15 0.13 57 1018.7
20260510015523 15 52 9.7 16.1 0.00 0.15 0.13 57 1018.6
20260510015023 15 11 8.0 14.5 0.00 0.15 0.13 56 1018.5
20260510014538 15 46 6.4 19.3 0.00 0.15 0.13 54 1018.5
20260510014023 16 25 3.2 19.3 0.00 0.15 0.13 53 1018.5
20260510013523 16 91 11.3 17.7 0.00 0.15 0.13 52 1018.5
20260510013046 16 32 9.7 17.7 0.00 0.15 0.13 49 1018.4
20260510012523 17 15 6.4 19.3 0.00 0.15 0.13 42 1018.2
20260510012023 17 328 8.0 19.3 0.00 0.15 0.13 40 1018.0
20260510011539 17 15 9.7 19.3 0.00 0.15 0.13 41 1018.2
20260510011022 17 360 4.8 19.3 0.00 0.15 0.13 44 1018.2
20260510010522 17 11 4.8 19.3 0.00 0.15 0.13 48 1018.0
20260510010055 17 63 9.7 22.5 0.00 0.15 0.13 47 1018.0
20260510005527 17 1 8.0 22.5 0.00 0.15 0.13 42 1018.1
20260510005022 17 40 8.0 19.3 0.00 0.15 0.13 44 1018.0
20260510004536 17 22 11.3 20.9 0.00 0.15 0.13 44 1017.8
20260510004027 17 340 9.7 22.5 0.00 0.15 0.13 41 1017.9
20260510003525 17 336 11.3 22.5 0.00 0.15 0.13 41 1017.9
20260510003038 17 307 9.7 25.7 0.00 0.15 0.13 41 1017.8
20260510002523 17 341 12.9 25.7 0.00 0.15 0.13 42 1017.9
20260510002023 17 359 11.3 25.7 0.00 0.15 0.13 41 1017.7
20260510001538 17 348 9.7 24.1 0.00 0.15 0.13 44 1017.8
20260510001025 16 348 9.7 24.1 0.00 0.15 0.13 44 1017.7
20260510000528 17 352 11.3 20.9 0.00 0.15 0.13 43 1017.7
20260510000041 16 336 11.3 20.9 0.00 0.15 0.13 44 1017.7
20260509235524 16 335 11.3 32.2 0.00 0.15 0.13 45 1017.7
20260509235023 16 324 14.5 32.2 0.00 0.15 0.13 44 1017.6
20260509234559 16 302 8.0 30.6 0.00 0.15 0.13 45 1017.6
20260509234027 16 12 9.7 30.6 0.00 0.15 0.13 44 1017.6
20260509233523 16 350 11.3 29.0 0.00 0.15 0.13 45 1017.4
20260509233040 16 37 12.9 29.0 0.00 0.15 0.13 44 1017.6
20260509232526 17 334 9.7 27.4 0.00 0.15 0.13 46 1017.6
20260509232023 17 360 12.9 27.4 0.00 0.15 0.13 44 1017.5
20260509231537 17 353 9.7 27.4 0.00 0.15 0.13 43 1017.6
20260509231023 17 319 11.3 25.7 0.00 0.15 0.13 44 1017.6
20260509230528 17 3 12.9 25.7 0.00 0.15 0.13 43 1017.5
20260509230045 17 340 9.7 27.4 0.00 0.15 0.13 44 1017.6
20260509225523 17 354 11.3 27.4 0.00 0.15 0.13 45 1017.5
20260509225026 17 25 8.0 22.5 0.00 0.15 0.13 48 1017.6
20260509224536 17 10 8.0 20.9 0.00 0.15 0.13 46 1017.6
20260509224023 17 42 8.0 25.7 0.00 0.15 0.13 47 1017.5
20260509223527 17 27 9.7 29.0 0.00 0.15 0.13 47 1017.2
20260509223036 16 33 12.9 29.0 0.00 0.15 0.13 47 1017.3
20260509222527 16 32 14.5 27.4 0.00 0.15 0.13 46 1017.3
20260509222023 16 72 14.5 27.4 0.00 0.15 0.13 46 1017.2
20260509221600 16 84 16.1 29.0 0.00 0.15 0.13 45 1017.1
20260509221024 16 29 16.1 29.0 0.00 0.15 0.13 47 1017.1
20260509220523 16 30 12.9 29.0 0.00 0.15 0.13 46 1017.2
20260509220037 17 26 12.9 25.7 0.00 0.15 0.13 43 1017.2
20260509215524 17 1 11.3 24.1 0.00 0.15 0.13 43 1017.3
20260509215023 17 51 12.9 24.1 0.00 0.15 0.13 42 1017.1
20260509214539 17 35 11.3 24.1 0.00 0.15 0.13 41 1017.1
20260509214022 17 11 11.3 24.1 0.00 0.15 0.13 40 1017.1
20260509213526 17 355 8.0 24.1 0.00 0.15 0.13 42 1017.2
20260509213040 16 20 11.3 22.5 0.00 0.15 0.13 41 1017.2
20260509212528 16 1 12.9 25.7 0.00 0.15 0.13 45 1017.2
20260509212023 16 16 12.9 27.4 0.00 0.15 0.13 44 1017.1
20260509211537 16 66 14.5 27.4 0.00 0.15 0.13 47 1017.1
20260509211023 16 44 11.3 30.6 0.00 0.15 0.13 47 1017.2
20260509210523 16 31 16.1 30.6 0.00 0.15 0.13 47 1017.4
20260509210037 16 25 19.3 30.6 0.00 0.15 0.13 46 1017.3
20260509205522 18 28 11.3 24.1 0.00 0.15 0.13 43 1017.3
20260509205022 18 356 9.7 24.1 0.00 0.15 0.13 35 1017.3
20260509204536 18 343 9.7 27.4 0.00 0.15 0.13 37 1017.2
20260509204023 18 342 12.9 27.4 0.00 0.15 0.13 35 1017.1
20260509203525 18 278 8.0 19.3 0.00 0.15 0.13 34 1017.1
20260509203041 18 342 6.4 24.1 0.00 0.15 0.13 39 1017.0
20260509202525 18 289 9.7 24.1 0.00 0.15 0.13 38 1017.1
20260509202023 18 47 11.3 19.3 0.00 0.15 0.13 35 1017.0
20260509201541 18 38 9.7 20.9 0.00 0.15 0.13 35 1017.0
20260509201027 18 318 6.4 20.9 0.00 0.15 0.13 36 1017.0
20260509200525 18 347 11.3 22.5 0.00 0.15 0.13 35 1017.0
20260509200042 18 319 9.7 22.5 0.00 0.15 0.13 35 1017.0
20260509195523 18 321 11.3 27.4 0.00 0.15 0.13 38 1017.0
20260509195026 17 6 12.9 27.4 0.00 0.15 0.13 35 1016.9
20260509194543 17 359 11.3 25.7 0.00 0.15 0.13 38 1016.8
20260509194023 17 26 14.5 25.7 0.00 0.15 0.13 40 1016.8
20260509193526 17 334 12.9 25.7 0.00 0.15 0.13 36 1016.6
20260509193044 18 24 12.9 25.7 0.00 0.15 0.13 36 1016.5
20260509192524 18 359 12.9 25.7 0.00 0.15 0.13 35 1016.4
20260509192036 18 8 12.9 24.1 0.00 0.15 0.13 33 1016.5
20260509191543 18 311 6.4 24.1 0.00 0.15 0.13 34 1016.4
20260509191028 18 331 9.7 25.7 0.00 0.15 0.13 32 1016.4
20260509190530 17 293 11.3 25.7 0.00 0.15 0.13 31 1016.4
20260509190047 17 305 8.0 24.1 0.00 0.15 0.13 35 1016.4
20260509185525 17 280 11.3 25.7 0.00 0.15 0.13 36 1016.6
20260509185023 17 360 11.3 27.4 0.00 0.15 0.13 37 1016.7
20260509184540 17 357 11.3 27.4 0.00 0.15 0.13 36 1016.6
20260509184022 17 46 9.7 19.3 0.00 0.15 0.13 35 1016.6
20260509183524 17 328 8.0 17.7 0.00 0.15 0.13 35 1016.7
20260509183041 17 359 8.0 27.4 0.00 0.15 0.13 34 1016.7
20260509182523 17 345 9.7 27.4 0.00 0.15 0.13 38 1016.7
20260509182022 17 359 8.0 20.9 0.00 0.15 0.13 37 1016.7
20260509181536 17 321 6.4 20.9 0.00 0.15 0.13 38 1016.8
20260509181026 17 2 8.0 19.3 0.00 0.15 0.13 43 1016.7
20260509180524 16 358 6.4 19.3 0.00 0.15 0.13 42 1016.8
20260509180037 16 328 9.7 20.9 0.00 0.15 0.13 46 1016.8
20260509175522 16 324 8.0 20.9 0.00 0.15 0.13 49 1017.0
20260509175027 15 15 8.0 17.7 0.00 0.15 0.13 49 1017.0
20260509174537 15 338 6.4 17.7 0.00 0.15 0.13 48 1017.1
20260509174023 15 332 6.4 17.7 0.00 0.15 0.13 48 1017.1
20260509173523 15 337 9.7 16.1 0.00 0.15 0.13 49 1017.1
20260509173051 15 318 6.4 16.1 0.00 0.15 0.13 47 1017.0
20260509172523 15 323 3.2 17.7 0.00 0.15 0.13 48 1017.1
20260509172026 15 322 8.0 17.7 0.00 0.15 0.13 48 1017.0
20260509171546 15 349 9.7 17.7 0.00 0.15 0.13 48 1017.1
20260509171023 15 338 8.0 20.9 0.00 0.15 0.13 47 1017.1
20260509170523 15 345 9.7 22.5 0.00 0.15 0.13 47 1017.0
20260509170042 15 1 11.3 22.5 0.00 0.15 0.13 43 1017.0
20260509165526 15 328 9.7 19.3 0.00 0.15 0.13 44 1017.0
20260509165023 15 359 11.3 22.5 0.00 0.15 0.13 44 1017.0
20260509164546 15 328 11.3 22.5 0.00 0.15 0.13 45 1016.9
20260509164028 16 348 9.7 20.9 0.00 0.15 0.13 46 1016.7
20260509163524 16 339 8.0 24.1 0.00 0.15 0.13 50 1016.7
20260509163049 15 1 12.9 24.1 0.00 0.15 0.13 50 1016.9
20260509162524 15 297 9.7 22.5 0.00 0.15 0.13 50 1016.6
20260509162024 15 34 9.7 22.5 0.00 0.15 0.13 48 1016.6
20260509161537 15 326 8.0 22.5 0.00 0.15 0.13 54 1016.5
20260509161023 15 342 11.3 20.9 0.00 0.15 0.13 55 1016.4
20260509160523 14 307 4.8 12.9 0.00 0.15 0.13 60 1016.3
20260509160037 13 347 3.2 11.3 0.00 0.15 0.13 65 1016.4
20260509155522 12 334 1.6 6.4 0.00 0.15 0.13 68 1016.4
20260509155026 12 342 1.6 4.8 0.00 0.15 0.13 72 1016.4
20260509154537 12 0 0.0 8.0 0.00 0.15 0.13 71 1016.4
20260509154026 12 336 1.6 8.0 0.00 0.15 0.13 72 1016.6
20260509153528 12 347 3.2 6.4 0.00 0.15 0.13 71 1016.8
20260509153038 12 342 0.0 6.4 0.00 0.15 0.13 70 1016.9
20260509152526 12 211 1.6 6.4 0.00 0.15 0.13 69 1017.0
20260509152026 12 247 1.6 4.8 0.00 0.15 0.13 70 1017.0
20260509151537 12 286 1.6 14.5 0.00 0.15 0.13 70 1016.9
20260509151026 12 329 3.2 14.5 0.00 0.15 0.13 67 1016.7
20260509150528 13 350 6.4 19.3 0.00 0.15 0.13 69 1016.4
20260509150037 13 311 8.0 19.3 0.00 0.15 0.13 67 1016.4
20260509145529 12 343 9.7 19.3 0.00 0.15 0.13 67 1016.3
20260509145027 12 350 8.0 17.7 0.00 0.15 0.13 68 1016.2
20260509144544 12 311 6.4 19.3 0.00 0.15 0.13 69 1016.1
20260509144026 12 333 8.0 19.3 0.00 0.15 0.13 69 1016.1
20260509143526 13 341 8.0 19.3 0.00 0.15 0.13 69 1016.0
20260509143037 13 337 6.4 19.3 0.00 0.15 0.13 69 1015.9
20260509142525 12 281 8.0 22.5 0.00 0.15 0.13 72 1015.9
20260509142027 12 342 6.4 22.5 0.00 0.15 0.13 72 1016.0
20260509141544 12 304 8.0 22.5 0.00 0.15 0.13 71 1015.8
20260509141027 12 327 8.0 17.7 0.00 0.15 0.13 72 1015.9
20260509140526 11 323 8.0 22.5 0.00 0.15 0.13 72 1015.8
20260509140042 11 298 8.0 22.5 0.00 0.15 0.13 73 1015.8
20260509135526 11 335 8.0 22.5 0.00 0.15 0.13 73 1015.8
20260509135027 11 359 8.0 16.1 0.00 0.15 0.13 75 1015.8
20260509134550 11 344 8.0 14.5 0.00 0.15 0.13 75 1015.7
20260509134031 11 266 6.4 14.5 0.00 0.15 0.13 76 1015.7
20260509133526 10 326 4.8 9.7 0.00 0.15 0.13 79 1015.5
20260509133038 10 334 3.2 9.7 0.00 0.15 0.13 81 1015.5
20260509132526 10 305 1.6 6.4 0.00 0.15 0.13 86 1015.5
20260509132026 10 0 0.0 4.8 0.00 0.15 0.13 88 1015.6
20260509131555 9 0 0.0 3.2 0.00 0.15 0.13 88 1015.5
20260509131026 9 0 0.0 3.2 0.00 0.15 0.13 88 1015.5
20260509130531 9 246 0.0 3.2 0.00 0.15 0.13 89 1015.4
20260509130048 9 0 0.0 3.2 0.00 0.15 0.13 88 1015.4
20260509125527 9 246 0.0 3.2 0.00 0.18 0.13 88 1015.2
20260509125026 9 0 0.0 3.2 0.00 0.18 0.13 88 1015.1
20260509124543 9 0 0.0 3.2 0.00 0.18 0.13 88 1015.3
20260509124026 9 0 0.0 4.8 0.00 0.18 0.13 88 1015.2
20260509123526 9 0 0.0 4.8 0.00 0.18 0.13 88 1015.2
20260509123048 9 259 1.6 4.8 0.00 0.18 0.13 88 1015.1
20260509122526 8 244 1.6 4.8 0.00 0.18 0.13 89 1015.0
20260509122024 8 212 1.6 4.8 0.00 0.18 0.13 89 1015.0
20260509121538 8 233 1.6 4.8 0.00 0.18 0.13 89 1014.9
20260509121026 8 0 0.0 3.2 0.00 0.18 0.13 89 1014.9
20260509120528 8 0 0.0 4.8 0.00 0.18 0.13 88 1014.6
20260509120038 9 221 1.6 4.8 0.03 0.18 0.13 88 1014.6
20260509115526 9 221 1.6 4.8 0.03 0.18 0.13 88 1014.6
20260509115026 9 217 0.0 3.2 0.03 0.18 0.13 87 1014.5
20260509114537 9 0 0.0 1.6 0.03 0.18 0.13 87 1014.4
20260509114026 9 0 0.0 3.2 0.03 0.18 0.13 87 1014.4
20260509113531 9 0 0.0 3.2 0.05 0.18 0.13 87 1014.5
20260509113046 9 179 0.0 3.2 0.05 0.18 0.13 86 1014.4
20260509112528 10 179 1.6 3.2 0.08 0.18 0.13 86 1014.3
20260509112027 10 179 1.6 3.2 0.08 0.18 0.13 85 1014.3
20260509111539 10 179 1.6 4.8 0.10 0.18 0.13 84 1014.4
20260509111026 10 0 1.6 4.8 0.13 0.18 0.13 84 1014.5
20260509110528 10 186 1.6 6.4 0.13 0.18 0.13 84 1014.3